QPF
0.00 0.00 0.00 0.00 0.00 0.00 0.00 0.00 0.00 0.00 0.01 0.02 0.04 0.06 0.07 0.07 0.07 0.06 0.04 0.02 0.02 0.01 0.01 0.01 0.00 0.00 0.00 0.00 0.00 0.00 0.00 0.00 0.01 0.01 0.01 0.01 0.01 0.02 0.02 0.02 0.02 0.02 0.01 0.01
0.00 0.00 0.00 0.00 0.00 0.00 0.00 0.01 0.01 0.01 0.02 0.03 0.04 0.06 0.07 0.07 0.06 0.06 0.04 0.02 0.01 0.01 0.01 0.01 0.01 0.00 0.00 0.00 0.01 0.01 0.00 0.01 0.01 0.01 0.02 0.02 0.02 0.02 0.02 0.01 0.01 0.01 0.01 0.00
0.00 0.00 0.00 0.01 0.01 0.01 0.01 0.01 0.02 0.02 0.03 0.03 0.04 0.06 0.06 0.05 0.05 0.04 0.03 0.02 0.02 0.01 0.01 0.01 0.01 0.01 0.01 0.01 0.01 0.01 0.01 0.02 0.02 0.02 0.02 0.02 0.02 0.01 0.01 0.01 0.01 0.01 0.01 0.00
0.01 0.01 0.01 0.01 0.00 0.01 0.01 0.02 0.03 0.03 0.04 0.04 0.06 0.07 0.07 0.06 0.06 0.06 0.05 0.04 0.03 0.02 0.01 0.01 0.01 0.01 0.01 0.01 0.01 0.01 0.02 0.02 0.02 0.01 0.01 0.01 0.01 0.01 0.01 0.01 0.01 0.00 0.00 0.00
0.02 0.02 0.02 0.02 0.01 0.01 0.03 0.04 0.02 0.03 0.04 0.05 0.06 0.06 0.05 0.05 0.05 0.06 0.05 0.04 0.04 0.03 0.03 0.03 0.03 0.02 0.02 0.02 0.02 0.02 0.02 0.02 0.01 0.01 0.01 0.01 0.01 0.01 0.01 0.01 0.01 0.00 0.00 0.01
0.03 0.03 0.04 0.04 0.01 0.02 0.05 0.07 0.03 0.03 0.04 0.05 0.05 0.05 0.03 0.02 0.02 0.03 0.04 0.04 0.03 0.02 0.02 0.01 0.01 0.01 0.01 0.01 0.02 0.01 0.01 0.01 0.01 0.01 0.00 0.00 0.01 0.01 0.01 0.01 0.01 0.00 0.00 0.01
0.04 0.05 0.06 0.02 0.01 0.04 0.09 0.08 0.04 0.04 0.04 0.05 0.05 0.05 0.03 0.02 0.02 0.03 0.03 0.02 0.02 0.01 0.01 0.01 0.01 0.01 0.01 0.01 0.01 0.01 0.01 0.00 0.00 0.00 0.00 0.00 0.01 0.01 0.01 0.00 0.01 0.01 0.01 0.01
0.05 0.07 0.07 0.03 0.03 0.07 0.08 0.04 0.04 0.05 0.04 0.04 0.03 0.03 0.02 0.02 0.02 0.01 0.01 0.01 0.01 0.01 0.01 0.01 0.01 0.01 0.01 0.01 0.01 0.01 0.01 0.00 0.00 0.00 0.00 0.00 0.01 0.01 0.01 0.01 0.01 0.01 0.01 0.01
0.07 0.08 0.06 0.04 0.03 0.03 0.03 0.04 0.04 0.05 0.03 0.02 0.01 0.01 0.01 0.01 0.01 0.01 0.01 0.01 0.01 0.01 0.01 0.01 0.01 0.01 0.01 0.01 0.01 0.01 0.01 0.01 0.01 0.01 0.01 0.01 0.01 0.01 0.01 0.01 0.01 0.01 0.01 0.01
0.04 0.04 0.03 0.02 0.02 0.01 0.02 0.03 0.03 0.03 0.03 0.02 0.02 0.01 0.00 0.00 0.01 0.01 0.01 0.01 0.01 0.01 0.01 0.01 0.01 0.01 0.01 0.01 0.02 0.02 0.02 0.02 0.02 0.02 0.02 0.01 0.01 0.01 0.01 0.02 0.02 0.02 0.01 0.01
0.03 0.04 0.03 0.03 0.02 0.01 0.00 0.01 0.01 0.01 0.01 0.01 0.01 0.01 0.01 0.01 0.01 0.01 0.01 0.01 0.01 0.01 0.01 0.01 0.01 0.01 0.01 0.01 0.01 0.02 0.02 0.01 0.02 0.01 0.01 0.01 0.01 0.01 0.01 0.01 0.01 0.01 0.02 0.02
0.02 0.03 0.03 0.04 0.03 0.01 0.00 0.00 0.00 0.00 0.00 0.01 0.01 0.01 0.01 0.01 0.01 0.01 0.01 0.01 0.01 0.01 0.01 0.01 0.01 0.00 0.00 0.01 0.01 0.02 0.02 0.01 0.01 0.01 0.01 0.01 0.02 0.02 0.01 0.00 0.00 0.00 0.00 0.01
0.01 0.01 0.01 0.01 0.01 0.00 0.00 0.00 0.00 0.01 0.01 0.01 0.01 0.01 0.01 0.01 0.01 0.01 0.01 0.01 0.01 0.01 0.01 0.00 0.00 0.00 0.00 0.00 0.00 0.01 0.02 0.02 0.01 0.01 0.01 0.01 0.02 0.03 0.02 0.01 0.00 0.00 0.00 0.01
0.00 0.01 0.01 0.01 0.00 0.00 0.00 0.00 0.01 0.01 0.01 0.01 0.01 0.01 0.01 0.01 0.00 0.00 0.01 0.00 0.00 0.00 0.00 0.00 0.00 0.00 0.00 0.00 0.00 0.01 0.01 0.01 0.01 0.01 0.01 0.01 0.02 0.02 0.02 0.01 0.02 0.02 0.01 0.01
0.01 0.01 0.02 0.01 0.00 0.00 0.00 0.00 0.01 0.01 0.01 0.01 0.01 0.01 0.01 0.01 0.01 0.00 0.01 0.00 0.00 0.00 0.00 0.00 0.00 0.00 0.00 0.00 0.00 0.01 0.02 0.02 0.01 0.01 0.01 0.01 0.01 0.01 0.01 0.01 0.01 0.02 0.02 0.02
0.00 0.00 0.01 0.01 0.01 0.01 0.01 0.00 0.01 0.01 0.01 0.01 0.01 0.01 0.01 0.00 0.00 0.00 0.01 0.00 0.00 0.00 0.00 0.00 0.00 0.00 0.00 0.00 0.00 0.01 0.01 0.01 0.00 0.00 0.00 0.00 0.01 0.01 0.01 0.01 0.01 0.02 0.02 0.02
0.01 0.01 0.01 0.01 0.01 0.01 0.01 0.01 0.01 0.01 0.01 0.01 0.01 0.00 0.00 0.00 0.00 0.01 0.00 0.00 0.00 0.00 0.00 0.00 0.00 0.00 0.00 0.00 0.00 0.00 0.01 0.00 0.00 0.00 0.00 0.01 0.01 0.00 0.01 0.01 0.01 0.02 0.02 0.02
0.01 0.01 0.02 0.01 0.00 0.00 0.00 0.01 0.01 0.01 0.01 0.00 0.00 0.00 0.00 0.00 0.00 0.00 0.00 0.00 0.00 0.00 0.00 0.00 0.00 0.00 0.00 0.00 0.00 0.00 0.00 0.00 0.01 0.01 0.00 0.00 0.00 0.00 0.00 0.01 0.01 0.02 0.02 0.02
0.00 0.01 0.01 0.01 0.00 0.00 0.01 0.00 0.00 0.00 0.00 0.00 0.00 0.00 0.00 0.00 0.00 0.00 0.00 0.00 0.00 0.00 0.00 0.00 0.00 0.00 0.00 0.00 0.00 0.00 0.00 0.00 0.00 0.00 0.00 0.00 0.00 0.00 0.00 0.01 0.01 0.01 0.02 0.02
0.01 0.01 0.01 0.01 0.00 0.00 0.00 0.00 0.00 0.00 0.00 0.00 0.00 0.00 0.00 0.00 0.00 0.00 0.00 0.00 0.00 0.00 0.00 0.00 0.00 0.00 0.00 0.00 0.00 0.00 0.00 0.00 0.00 0.00 0.00 0.00 0.00 0.00 0.00 0.00 0.01 0.01 0.02 0.02
0.00 0.00 0.00 0.00 0.00 0.00 0.00 0.00 0.00 0.00 0.00 0.00 0.00 0.00 0.00 0.00 0.00 0.00 0.00 0.00 0.00 0.00 0.00 0.00 0.00 0.00 0.00 0.00 0.00 0.00 0.00 0.00 0.00 0.00 0.00 0.00 0.00 0.00 0.00 0.00 0.00 0.00 0.01 0.01
0.00 0.00 0.00 0.00 0.00 0.00 0.00 0.00 0.00 0.00 0.00 0.00 0.00 0.00 0.00 0.00 0.00 0.00 0.00 0.00 0.00 0.00 0.00 0.00 0.00 0.00 0.00 0.00 0.00 0.00 0.00 0.00 0.00 0.00 0.00 0.00 0.00 0.00 0.00 0.00 0.00 0.00 0.00 0.00
0.01 0.00 0.00 0.00 0.00 0.00 0.00 0.00 0.00 0.00 0.00 0.00 0.00 0.00 0.00 0.00 0.00 0.00 0.00 0.00 0.00 0.00 0.00 0.00 0.00 0.00 0.00 0.00 0.00 0.00 0.00 0.00 0.00 0.00 0.00 0.00 0.00 0.00 0.00 0.00 0.00 0.00 0.00 0.00
0.01 0.01 0.00 0.00 0.00 0.00 0.00 0.00 0.00 0.00 0.00 0.00 0.00 0.00 0.00 0.00 0.00 0.00 0.00 0.00 0.00 0.00 0.00 0.00 0.00 0.00 0.00 0.00 0.00 0.00 0.00 0.00 0.00 0.00 0.00 0.00 0.00 0.00 0.00 0.00 0.00 0.00 0.00 0.00
0.01 0.01 0.00 0.00 0.00 0.00 0.00 0.00 0.00 0.00 0.00 0.00 0.00 0.00 0.00 0.00 0.00 0.00 0.00 0.00 0.00 0.00 0.00 0.00 0.00 0.00 0.00 0.00 0.00 0.00 0.00 0.00 0.00 0.00 0.00 0.00 0.00 0.00 0.00 0.00 0.00 0.00 0.00 0.00
0.01 0.01 0.01 0.00 0.00 0.00 0.00 0.00 0.00 0.00 0.00 0.00 0.00 0.00 0.00 0.00 0.00 0.00 0.00 0.00 0.00 0.00 0.00 0.00 0.00 0.00 0.00 0.00 0.00 0.00 0.00 0.00 0.00 0.00 0.00 0.00 0.00 0.00 0.00 0.00 0.00 0.00 0.00 0.00
0.01 0.01 0.01 0.00 0.00 0.00 0.00 0.00 0.00 0.00 0.00 0.00 0.00 0.00 0.00 0.00 0.00 0.00 0.00 0.00 0.00 0.00 0.00 0.00 0.00 0.00 0.00 0.00 0.00 0.00 0.00 0.00 0.00 0.00 0.00 0.00 0.00 0.00 0.00 0.00 0.00 0.00 0.00 0.00
MSLP
1010.05 1009.63 1009.27 1008.98 1008.80 1008.73 1008.80 1009.01 1009.38 1009.90 1010.58 1011.41 1012.36 1013.40 1014.49 1015.56 1016.57 1017.46 1018.21 1018.78 1019.19 1019.47 1019.66 1019.80 1019.94 1020.11 1020.34 1020.62 1020.95 1021.28 1021.60 1021.87 1022.08 1022.21 1022.29 1022.33 1022.37 1022.42 1022.50 1022.63 1022.78 1022.94 1023.09 1023.18
1010.56 1010.19 1009.85 1009.58 1009.39 1009.32 1009.39 1009.61 1009.99 1010.54 1011.26 1012.12 1013.11 1014.18 1015.28 1016.35 1017.35 1018.22 1018.94 1019.51 1019.92 1020.21 1020.42 1020.59 1020.78 1020.99 1021.25 1021.55 1021.88 1022.19 1022.47 1022.68 1022.82 1022.88 1022.88 1022.83 1022.79 1022.77 1022.80 1022.88 1023.00 1023.14 1023.27 1023.37
1011.13 1010.83 1010.56 1010.33 1010.17 1010.12 1010.20 1010.44 1010.84 1011.41 1012.15 1013.04 1014.05 1015.12 1016.22 1017.27 1018.24 1019.08 1019.76 1020.29 1020.68 1020.96 1021.17 1021.35 1021.53 1021.75 1022.01 1022.30 1022.60 1022.88 1023.11 1023.26 1023.34 1023.33 1023.27 1023.17 1023.08 1023.02 1023.02 1023.07 1023.18 1023.33 1023.47 1023.57
1011.74 1011.53 1011.34 1011.17 1011.07 1011.05 1011.16 1011.41 1011.83 1012.41 1013.17 1014.06 1015.06 1016.12 1017.19 1018.21 1019.13 1019.93 1020.57 1021.06 1021.41 1021.65 1021.83 1021.99 1022.15 1022.34 1022.57 1022.82 1023.08 1023.31 1023.49 1023.59 1023.62 1023.58 1023.48 1023.36 1023.25 1023.19 1023.18 1023.24 1023.36 1023.51 1023.67 1023.79
1012.35 1012.24 1012.13 1012.04 1011.99 1012.03 1012.17 1012.44 1012.86 1013.45 1014.19 1015.06 1016.04 1017.06 1018.09 1019.06 1019.93 1020.67 1021.27 1021.71 1022.01 1022.22 1022.36 1022.47 1022.59 1022.74 1022.92 1023.12 1023.32 1023.50 1023.64 1023.71 1023.72 1023.66 1023.56 1023.45 1023.36 1023.31 1023.32 1023.40 1023.54 1023.71 1023.88 1024.01
1012.93 1012.90 1012.88 1012.86 1012.88 1012.97 1013.14 1013.43 1013.85 1014.43 1015.14 1015.97 1016.90 1017.87 1018.84 1019.75 1020.57 1021.26 1021.80 1022.19 1022.46 1022.62 1022.72 1022.80 1022.87 1022.97 1023.09 1023.24 1023.39 1023.53 1023.63 1023.68 1023.68 1023.64 1023.56 1023.48 1023.43 1023.41 1023.46 1023.57 1023.73 1023.90 1024.07 1024.20
1013.46 1013.51 1013.56 1013.62 1013.70 1013.83 1014.03 1014.34 1014.76 1015.30 1015.98 1016.76 1017.62 1018.52 1019.41 1020.26 1021.01 1021.64 1022.14 1022.49 1022.73 1022.86 1022.94 1022.97 1023.01 1023.06 1023.14 1023.23 1023.34 1023.44 1023.52 1023.57 1023.58 1023.57 1023.53 1023.50 1023.50 1023.53 1023.62 1023.75 1023.91 1024.09 1024.25 1024.36
1013.93 1014.04 1014.16 1014.29 1014.43 1014.61 1014.85 1015.16 1015.57 1016.08 1016.70 1017.41 1018.19 1019.01 1019.82 1020.59 1021.28 1021.86 1022.31 1022.64 1022.86 1022.98 1023.03 1023.05 1023.06 1023.08 1023.11 1023.17 1023.24 1023.32 1023.39 1023.44 1023.48 1023.50 1023.51 1023.54 1023.59 1023.67 1023.78 1023.93 1024.09 1024.26 1024.39 1024.46
1014.34 1014.52 1014.70 1014.89 1015.10 1015.32 1015.59 1015.91 1016.30 1016.78 1017.34 1017.97 1018.67 1019.39 1020.12 1020.80 1021.42 1021.95 1022.37 1022.68 1022.89 1023.00 1023.06 1023.07 1023.06 1023.06 1023.07 1023.10 1023.14 1023.20 1023.26 1023.33 1023.38 1023.45 1023.51 1023.59 1023.68 1023.80 1023.94 1024.10 1024.26 1024.39 1024.49 1024.53
1014.71 1014.95 1015.20 1015.46 1015.72 1016.00 1016.29 1016.63 1017.00 1017.44 1017.94 1018.49 1019.09 1019.72 1020.35 1020.95 1021.51 1021.99 1022.38 1022.67 1022.87 1023.00 1023.05 1023.07 1023.06 1023.04 1023.03 1023.04 1023.06 1023.10 1023.16 1023.23 1023.31 1023.40 1023.51 1023.64 1023.77 1023.93 1024.09 1024.24 1024.39 1024.50 1024.56 1024.56
1015.06 1015.35 1015.67 1016.00 1016.33 1016.66 1016.99 1017.33 1017.70 1018.10 1018.53 1019.01 1019.52 1020.05 1020.59 1021.11 1021.59 1022.02 1022.38 1022.66 1022.86 1022.99 1023.06 1023.08 1023.07 1023.04 1023.01 1022.99 1022.99 1023.01 1023.06 1023.13 1023.23 1023.35 1023.49 1023.65 1023.83 1024.01 1024.19 1024.35 1024.49 1024.57 1024.61 1024.57
1015.39 1015.75 1016.13 1016.53 1016.93 1017.31 1017.68 1018.04 1018.40 1018.76 1019.14 1019.55 1019.97 1020.41 1020.86 1021.30 1021.72 1022.10 1022.43 1022.70 1022.89 1023.02 1023.09 1023.12 1023.10 1023.05 1023.00 1022.96 1022.93 1022.92 1022.95 1023.02 1023.12 1023.26 1023.43 1023.62 1023.83 1024.04 1024.24 1024.42 1024.55 1024.63 1024.65 1024.60
1015.70 1016.13 1016.58 1017.05 1017.50 1017.93 1018.34 1018.72 1019.07 1019.41 1019.75 1020.09 1020.44 1020.81 1021.18 1021.55 1021.90 1022.24 1022.53 1022.78 1022.97 1023.10 1023.17 1023.18 1023.15 1023.09 1023.01 1022.93 1022.86 1022.83 1022.83 1022.88 1022.98 1023.13 1023.32 1023.54 1023.79 1024.03 1024.26 1024.46 1024.61 1024.69 1024.71 1024.65
1015.99 1016.47 1016.99 1017.52 1018.03 1018.50 1018.94 1019.34 1019.69 1020.01 1020.32 1020.61 1020.90 1021.21 1021.51 1021.83 1022.14 1022.43 1022.70 1022.93 1023.10 1023.22 1023.28 1023.28 1023.23 1023.14 1023.02 1022.90 1022.80 1022.73 1022.70 1022.73 1022.82 1022.97 1023.18 1023.43 1023.71 1023.99 1024.26 1024.49 1024.66 1024.77 1024.80 1024.75
1016.24 1016.78 1017.35 1017.92 1018.47 1018.98 1019.45 1019.85 1020.21 1020.52 1020.80 1021.06 1021.32 1021.58 1021.84 1022.11 1022.39 1022.65 1022.90 1023.11 1023.28 1023.38 1023.43 1023.41 1023.34 1023.22 1023.06 1022.91 1022.76 1022.65 1022.59 1022.60 1022.68 1022.83 1023.06 1023.33 1023.64 1023.96 1024.27 1024.54 1024.74 1024.88 1024.93 1024.90
1016.44 1017.03 1017.63 1018.24 1018.82 1019.35 1019.83 1020.24 1020.60 1020.91 1021.17 1021.42 1021.66 1021.89 1022.13 1022.38 1022.64 1022.89 1023.12 1023.33 1023.48 1023.58 1023.61 1023.58 1023.48 1023.33 1023.14 1022.95 1022.77 1022.62 1022.53 1022.52 1022.59 1022.75 1022.98 1023.28 1023.61 1023.97 1024.31 1024.61 1024.85 1025.02 1025.10 1025.08
1016.60 1017.22 1017.85 1018.47 1019.06 1019.60 1020.08 1020.50 1020.85 1021.16 1021.43 1021.67 1021.90 1022.13 1022.37 1022.61 1022.87 1023.12 1023.35 1023.55 1023.70 1023.79 1023.82 1023.77 1023.65 1023.48 1023.28 1023.05 1022.85 1022.67 1022.56 1022.53 1022.59 1022.74 1022.98 1023.29 1023.64 1024.02 1024.39 1024.72 1024.99 1025.18 1025.27 1025.27
1016.74 1017.38 1018.02 1018.65 1019.23 1019.77 1020.24 1020.65 1021.00 1021.30 1021.57 1021.82 1022.05 1022.30 1022.54 1022.80 1023.06 1023.32 1023.56 1023.76 1023.92 1024.01 1024.03 1023.98 1023.86 1023.68 1023.46 1023.22 1023.00 1022.81 1022.69 1022.64 1022.69 1022.83 1023.07 1023.38 1023.73 1024.12 1024.49 1024.84 1025.12 1025.32 1025.43 1025.44
1016.89 1017.53 1018.18 1018.79 1019.36 1019.88 1020.33 1020.73 1021.07 1021.37 1021.65 1021.90 1022.15 1022.41 1022.68 1022.95 1023.22 1023.49 1023.74 1023.95 1024.11 1024.21 1024.24 1024.19 1024.07 1023.89 1023.68 1023.44 1023.22 1023.03 1022.90 1022.84 1022.88 1023.01 1023.23 1023.52 1023.87 1024.24 1024.61 1024.94 1025.22 1025.42 1025.54 1025.55
1017.07 1017.71 1018.35 1018.94 1019.49 1019.97 1020.41 1020.78 1021.12 1021.42 1021.69 1021.96 1022.23 1022.50 1022.78 1023.07 1023.36 1023.64 1023.89 1024.11 1024.27 1024.38 1024.41 1024.37 1024.26 1024.10 1023.90 1023.68 1023.46 1023.28 1023.15 1023.10 1023.12 1023.24 1023.43 1023.70 1024.02 1024.36 1024.70 1025.01 1025.27 1025.46 1025.56 1025.57
1017.28 1017.93 1018.54 1019.11 1019.63 1020.09 1020.49 1020.85 1021.17 1021.47 1021.75 1022.02 1022.30 1022.58 1022.87 1023.17 1023.46 1023.74 1024.00 1024.22 1024.38 1024.49 1024.53 1024.50 1024.42 1024.28 1024.10 1023.90 1023.71 1023.55 1023.43 1023.37 1023.39 1023.48 1023.65 1023.88 1024.16 1024.46 1024.75 1025.03 1025.26 1025.42 1025.51 1025.52
1017.52 1018.15 1018.75 1019.29 1019.78 1020.21 1020.59 1020.93 1021.24 1021.53 1021.82 1022.09 1022.38 1022.67 1022.97 1023.26 1023.55 1023.82 1024.07 1024.28 1024.44 1024.54 1024.59 1024.58 1024.51 1024.40 1024.26 1024.09 1023.93 1023.79 1023.69 1023.64 1023.65 1023.72 1023.86 1024.05 1024.28 1024.53 1024.78 1025.01 1025.21 1025.35 1025.42 1025.43
1017.75 1018.36 1018.93 1019.44 1019.90 1020.31 1020.68 1021.01 1021.31 1021.61 1021.89 1022.18 1022.46 1022.75 1023.05 1023.33 1023.61 1023.86 1024.09 1024.28 1024.43 1024.54 1024.59 1024.59 1024.55 1024.46 1024.36 1024.23 1024.11 1024.00 1023.92 1023.88 1023.89 1023.95 1024.06 1024.21 1024.40 1024.60 1024.81 1025.00 1025.16 1025.28 1025.35 1025.36
1017.90 1018.49 1019.03 1019.52 1019.96 1020.36 1020.71 1021.04 1021.36 1021.66 1021.95 1022.24 1022.53 1022.82 1023.10 1023.37 1023.63 1023.86 1024.06 1024.24 1024.37 1024.47 1024.53 1024.54 1024.53 1024.48 1024.42 1024.34 1024.26 1024.19 1024.14 1024.12 1024.13 1024.18 1024.27 1024.40 1024.54 1024.71 1024.88 1025.04 1025.18 1025.29 1025.36 1025.38
1017.93 1018.49 1019.02 1019.49 1019.92 1020.31 1020.67 1021.01 1021.34 1021.65 1021.96 1022.26 1022.56 1022.84 1023.11 1023.37 1023.60 1023.81 1023.99 1024.15 1024.27 1024.36 1024.43 1024.46 1024.48 1024.47 1024.45 1024.42 1024.39 1024.37 1024.35 1024.36 1024.39 1024.44 1024.52 1024.63 1024.75 1024.89 1025.04 1025.18 1025.31 1025.42 1025.50 1025.55
1017.82 1018.36 1018.86 1019.32 1019.75 1020.15 1020.53 1020.89 1021.24 1021.58 1021.90 1022.22 1022.52 1022.80 1023.07 1023.31 1023.52 1023.71 1023.88 1024.02 1024.13 1024.23 1024.31 1024.37 1024.42 1024.46 1024.49 1024.51 1024.53 1024.56 1024.59 1024.63 1024.68 1024.75 1024.83 1024.93 1025.05 1025.18 1025.32 1025.46 1025.60 1025.72 1025.82 1025.90
1017.57 1018.08 1018.57 1019.04 1019.47 1019.89 1020.30 1020.69 1021.06 1021.43 1021.78 1022.11 1022.42 1022.71 1022.97 1023.20 1023.40 1023.58 1023.73 1023.86 1023.98 1024.09 1024.18 1024.28 1024.37 1024.45 1024.53 1024.61 1024.69 1024.77 1024.85 1024.93 1025.01 1025.10 1025.21 1025.32 1025.45 1025.58 1025.73 1025.88 1026.02 1026.17 1026.30 1026.41
Thickness
5656 5662 5666 5664 5667 5671 5672 5676 5677 5679 5672 5664 5656 5649 5642 5636 5630 5624 5618 5614 5610 5606 5602 5598 5595 5591 5588 5585 5581 5577 5573 5568 5561 5555 5550 5544 5537 5531 5526 5520 5515 5509 5503 5499
5643 5650 5653 5652 5656 5659 5660 5663 5666 5665 5656 5656 5646 5638 5629 5622 5617 5610 5604 5598 5593 5589 5585 5581 5577 5573 5570 5566 5562 5558 5554 5548 5542 5537 5531 5525 5520 5514 5508 5503 5497 5493 5488 5484
5634 5641 5640 5637 5643 5644 5646 5650 5650 5648 5644 5637 5627 5618 5612 5607 5602 5595 5589 5582 5576 5571 5567 5564 5560 5557 5553 5549 5545 5540 5535 5530 5524 5519 5514 5509 5505 5499 5493 5487 5482 5478 5474 5469
5625 5624 5613 5625 5632 5631 5629 5628 5632 5631 5627 5619 5606 5597 5593 5591 5587 5579 5572 5566 5560 5555 5551 5547 5544 5540 5537 5533 5528 5523 5518 5513 5509 5504 5499 5494 5489 5484 5478 5473 5469 5464 5459 5454
5613 5615 5618 5615 5616 5616 5615 5610 5611 5609 5602 5593 5588 5583 5572 5568 5566 5561 5555 5550 5545 5541 5537 5533 5529 5526 5522 5518 5513 5509 5504 5499 5495 5491 5485 5480 5475 5469 5464 5459 5455 5450 5445 5440
5603 5599 5600 5596 5603 5608 5606 5596 5594 5593 5587 5583 5582 5578 5559 5551 5548 5544 5539 5536 5532 5529 5525 5521 5516 5513 5510 5505 5501 5497 5492 5486 5481 5477 5472 5466 5460 5455 5450 5445 5441 5437 5431 5426
5595 5592 5593 5585 5594 5600 5588 5578 5581 5582 5578 5575 5570 5564 5547 5539 5535 5531 5527 5523 5520 5517 5514 5509 5506 5503 5499 5494 5489 5484 5479 5474 5468 5463 5458 5452 5447 5442 5437 5433 5428 5424 5419 5415
5585 5581 5574 5574 5584 5576 5567 5571 5572 5570 5566 5559 5550 5541 5533 5528 5523 5520 5516 5513 5511 5508 5504 5499 5495 5492 5488 5484 5478 5473 5468 5462 5456 5451 5447 5441 5435 5430 5425 5421 5417 5412 5407 5404
5573 5567 5565 5566 5563 5562 5563 5563 5562 5560 5554 5546 5538 5530 5524 5519 5515 5511 5509 5506 5503 5500 5495 5491 5487 5484 5479 5473 5468 5463 5458 5451 5446 5440 5434 5429 5425 5420 5416 5411 5407 5402 5398 5394
5571 5568 5563 5561 5559 5558 5557 5556 5553 5550 5544 5537 5529 5522 5516 5512 5507 5504 5501 5498 5495 5492 5488 5483 5479 5474 5469 5464 5458 5454 5448 5442 5436 5430 5425 5419 5414 5411 5406 5401 5397 5393 5389 5386
5567 5564 5560 5555 5552 5550 5547 5546 5543 5539 5534 5527 5521 5515 5510 5505 5501 5498 5495 5491 5488 5485 5480 5475 5470 5465 5460 5455 5450 5445 5439 5433 5428 5423 5418 5411 5406 5399 5395 5389 5382 5380 5380 5379
5561 5559 5557 5550 5544 5542 5539 5536 5533 5528 5522 5516 5513 5507 5503 5500 5496 5493 5488 5484 5480 5476 5472 5468 5463 5458 5452 5447 5441 5435 5431 5425 5421 5416 5411 5407 5401 5394 5382 5379 5374 5370 5368 5367
5557 5554 5550 5542 5538 5534 5531 5527 5523 5519 5513 5506 5502 5499 5497 5494 5490 5486 5482 5478 5474 5470 5465 5461 5456 5450 5445 5439 5434 5428 5423 5418 5415 5411 5407 5403 5399 5394 5388 5378 5372 5370 5368 5367
5550 5546 5540 5536 5530 5525 5521 5517 5513 5508 5504 5500 5497 5495 5492 5488 5484 5481 5477 5472 5468 5464 5459 5455 5450 5444 5439 5433 5428 5423 5419 5413 5409 5408 5404 5400 5396 5392 5388 5384 5379 5375 5371 5369
5547 5544 5539 5531 5524 5518 5513 5510 5506 5501 5497 5495 5493 5490 5487 5483 5479 5476 5471 5467 5463 5459 5455 5450 5445 5439 5434 5429 5425 5420 5417 5414 5409 5406 5403 5399 5395 5392 5388 5383 5379 5377 5375 5374
5543 5538 5532 5525 5518 5512 5509 5506 5503 5499 5495 5492 5490 5486 5483 5479 5475 5471 5467 5463 5460 5455 5450 5445 5440 5435 5431 5427 5423 5420 5415 5404 5404 5406 5403 5400 5396 5393 5388 5384 5381 5378 5376 5375
5539 5533 5527 5521 5515 5510 5506 5504 5500 5497 5494 5490 5487 5483 5480 5476 5472 5468 5464 5460 5455 5450 5446 5441 5436 5433 5430 5426 5423 5423 5419 5411 5401 5406 5404 5400 5397 5393 5389 5385 5382 5379 5377 5376
5541 5535 5529 5522 5516 5509 5505 5502 5499 5495 5492 5488 5485 5481 5478 5474 5471 5465 5462 5457 5453 5448 5443 5438 5433 5431 5429 5425 5422 5422 5421 5417 5412 5409 5404 5401 5397 5394 5391 5388 5384 5382 5381 5381
5538 5531 5525 5519 5514 5509 5505 5502 5498 5495 5491 5488 5484 5480 5477 5473 5468 5464 5460 5457 5453 5449 5442 5437 5429 5431 5429 5424 5421 5422 5421 5418 5414 5410 5406 5398 5400 5397 5394 5391 5389 5387 5386 5385
5533 5528 5523 5517 5513 5508 5504 5500 5496 5493 5490 5487 5483 5479 5475 5471 5467 5463 5460 5457 5452 5447 5441 5435 5434 5432 5429 5425 5422 5426 5423 5420 5417 5413 5410 5407 5404 5400 5397 5395 5393 5392 5390 5389
5530 5525 5519 5515 5510 5506 5502 5499 5495 5492 5489 5487 5483 5480 5475 5471 5468 5465 5463 5460 5450 5445 5442 5436 5437 5434 5431 5427 5425 5428 5425 5422 5420 5416 5413 5410 5407 5404 5401 5398 5397 5395 5394 5393
5527 5522 5517 5512 5508 5504 5500 5498 5495 5492 5488 5487 5484 5481 5476 5472 5469 5466 5462 5459 5452 5444 5446 5446 5440 5431 5430 5428 5433 5430 5427 5424 5422 5419 5415 5412 5410 5407 5404 5402 5400 5399 5398 5397
5525 5521 5516 5511 5507 5503 5499 5497 5494 5491 5489 5487 5484 5482 5480 5477 5476 5472 5467 5460 5457 5447 5448 5443 5435 5431 5429 5435 5435 5432 5428 5426 5424 5421 5418 5414 5412 5409 5407 5405 5403 5401 5400 5400
5523 5518 5514 5510 5506 5501 5498 5497 5494 5492 5491 5489 5486 5483 5481 5478 5475 5474 5468 5455 5452 5451 5451 5441 5436 5435 5433 5441 5438 5435 5432 5428 5426 5423 5420 5417 5414 5412 5409 5407 5405 5404 5403 5402
5520 5517 5513 5508 5504 5502 5499 5496 5494 5492 5492 5490 5487 5484 5484 5483 5479 5475 5470 5464 5455 5456 5455 5446 5441 5441 5444 5444 5442 5438 5434 5430 5427 5426 5422 5420 5418 5415 5411 5409 5407 5406 5405 5405
5518 5515 5511 5508 5507 5504 5502 5499 5498 5496 5495 5492 5490 5488 5486 5483 5480 5476 5472 5469 5465 5460 5462 5458 5454 5450 5452 5449 5445 5441 5438 5434 5432 5429 5425 5423 5420 5417 5414 5412 5409 5409 5408 5407
5516 5513 5509 5509 5506 5506 5504 5502 5501 5499 5498 5495 5493 5490 5488 5485 5483 5481 5478 5476 5472 5470 5468 5465 5463 5460 5457 5454 5449 5446 5443 5439 5436 5433 5430 5427 5424 5421 5418 5415 5413 5412 5411 5409